Year,Month,Day,Hour,Minute,Value (Times are PST for temperature in C)
2005,08,14,00,00,17.40
2005,08,14,00,01,17.30
2005,08,14,00,02,17.30
2005,08,14,00,03,17.30
2005,08,14,00,04,17.30
2005,08,14,00,05,17.20
2005,08,14,00,06,17.00
2005,08,14,00,07,16.90
2005,08,14,00,08,16.80
2005,08,14,00,09,16.70
2005,08,14,00,10,16.60
2005,08,14,00,11,16.40
2005,08,14,00,12,16.30
2005,08,14,00,13,16.10
2005,08,14,00,15,15.90
2005,08,14,00,16,15.80
2005,08,14,00,18,15.60
2005,08,14,00,19,15.40
2005,08,14,00,22,15.00
2005,08,14,00,23,14.90
2005,08,14,00,25,14.80
2005,08,14,00,27,14.60
2005,08,14,00,28,14.60
2005,08,14,00,29,14.60
2005,08,14,00,32,14.40
2005,08,14,00,33,14.30
2005,08,14,00,35,14.20
2005,08,14,00,36,14.20
2005,08,14,00,37,14.20
2005,08,14,00,38,14.10
2005,08,14,00,39,14.10
2005,08,14,00,40,14.10
2005,08,14,00,42,14.00
2005,08,14,00,43,14.00
2005,08,14,00,44,13.90
2005,08,14,00,45,13.90
2005,08,14,00,46,13.90
2005,08,14,00,47,13.90
2005,08,14,00,48,13.90
2005,08,14,00,49,13.90
2005,08,14,00,50,13.90
2005,08,14,00,51,13.90
2005,08,14,00,52,13.90
2005,08,14,00,53,13.90
2005,08,14,00,54,13.90
2005,08,14,00,55,13.90
2005,08,14,00,56,13.90
2005,08,14,00,57,13.90
2005,08,14,00,58,13.90
2005,08,14,00,59,13.90
2005,08,14,01,00,13.90
2005,08,14,01,02,13.90
2005,08,14,01,03,13.90
2005,08,14,01,05,14.00
2005,08,14,01,06,14.00
2005,08,14,01,07,14.00
2005,08,14,01,09,14.00
2005,08,14,01,10,14.10
2005,08,14,01,11,14.10
2005,08,14,01,12,14.10
2005,08,14,01,13,14.10
2005,08,14,01,14,14.10
2005,08,14,01,15,14.10
2005,08,14,01,16,14.00
2005,08,14,01,17,14.00
2005,08,14,01,19,13.90
2005,08,14,01,20,13.90
2005,08,14,01,21,13.90
2005,08,14,01,22,13.90
2005,08,14,01,23,13.80
2005,08,14,01,24,13.80
2005,08,14,01,27,13.80
2005,08,14,01,32,13.70
2005,08,14,01,35,13.70
2005,08,14,01,37,13.80
2005,08,14,01,40,13.80
2005,08,14,01,42,13.90
2005,08,14,01,45,13.90
2005,08,14,01,46,13.80
2005,08,14,01,48,13.80
2005,08,14,01,49,13.70
2005,08,14,01,50,13.70
2005,08,14,01,51,13.70
2005,08,14,01,52,13.70
2005,08,14,01,53,13.70
2005,08,14,01,54,13.70
2005,08,14,01,56,13.60
2005,08,14,01,57,13.60
2005,08,14,01,58,13.50
2005,08,14,02,00,13.40
2005,08,14,02,05,13.30
2005,08,14,02,10,13.20
2005,08,14,02,13,13.20
2005,08,14,02,15,13.20
2005,08,14,02,16,13.20
2005,08,14,02,17,13.20
2005,08,14,02,18,13.20
2005,08,14,02,19,13.30
2005,08,14,02,20,13.30
2005,08,14,02,21,13.30
2005,08,14,02,22,13.40
2005,08,14,02,23,13.40
2005,08,14,02,24,13.50
2005,08,14,02,25,13.60
2005,08,14,02,26,13.60
2005,08,14,02,27,13.70
2005,08,14,02,28,13.70
2005,08,14,02,29,13.70
2005,08,14,02,30,13.80
2005,08,14,02,31,13.90
2005,08,14,02,32,13.90
2005,08,14,02,33,13.90
2005,08,14,02,34,14.00
2005,08,14,02,35,14.00
2005,08,14,02,36,14.00
2005,08,14,02,37,14.10
2005,08,14,02,38,14.10
2005,08,14,02,39,14.10
2005,08,14,02,40,14.20
2005,08,14,02,41,14.30
2005,08,14,02,42,14.20
2005,08,14,02,43,14.20
2005,08,14,02,44,14.20
2005,08,14,02,45,14.20
2005,08,14,02,46,14.20
2005,08,14,02,47,14.20
2005,08,14,02,48,14.20
2005,08,14,02,49,14.20
2005,08,14,02,50,14.20
2005,08,14,02,51,14.20
2005,08,14,02,52,14.20
2005,08,14,02,53,14.20
2005,08,14,02,54,14.40
2005,08,14,02,55,14.40
2005,08,14,02,56,14.30
2005,08,14,02,57,14.30
2005,08,14,02,58,14.30
2005,08,14,02,59,14.20
2005,08,14,03,00,14.20
2005,08,14,03,01,14.20
2005,08,14,03,02,14.20
2005,08,14,03,03,14.20
2005,08,14,03,04,14.20
2005,08,14,03,05,14.20
2005,08,14,03,06,14.20
2005,08,14,03,07,14.10
2005,08,14,03,08,14.10
2005,08,14,03,09,14.10
2005,08,14,03,10,14.00
2005,08,14,03,11,14.00
2005,08,14,03,12,13.90
2005,08,14,03,13,13.90
2005,08,14,03,14,13.90
2005,08,14,03,15,13.90
2005,08,14,03,16,13.80
2005,08,14,03,17,13.80
2005,08,14,03,18,13.70
2005,08,14,03,19,13.70
2005,08,14,03,20,13.70
2005,08,14,03,21,13.70
2005,08,14,03,22,13.70
2005,08,14,03,23,13.70
2005,08,14,03,24,13.70
2005,08,14,03,25,13.70
2005,08,14,03,26,13.80
2005,08,14,03,27,13.80
2005,08,14,03,28,13.80
2005,08,14,03,29,13.80
2005,08,14,03,30,13.80
2005,08,14,03,31,13.80
2005,08,14,03,32,13.90
2005,08,14,03,33,13.90
2005,08,14,03,34,13.90
2005,08,14,03,35,13.90
2005,08,14,03,36,14.00
2005,08,14,03,37,14.00
2005,08,14,03,38,14.00
2005,08,14,03,39,14.10
2005,08,14,03,40,14.10
2005,08,14,03,41,14.10
2005,08,14,03,42,14.20
2005,08,14,03,43,14.20
2005,08,14,03,44,14.20
2005,08,14,03,45,14.20
2005,08,14,03,46,14.30
2005,08,14,03,47,14.40
2005,08,14,03,48,14.50
2005,08,14,03,49,14.50
2005,08,14,03,50,14.50
2005,08,14,03,51,14.50
2005,08,14,03,52,14.50
2005,08,14,03,53,14.50
2005,08,14,03,54,14.60
2005,08,14,03,55,14.60
2005,08,14,03,56,14.60
2005,08,14,03,57,14.60
2005,08,14,03,58,14.60
2005,08,14,03,59,14.60
2005,08,14,04,00,14.70
2005,08,14,04,01,14.70
2005,08,14,04,02,14.70
2005,08,14,04,03,14.80
2005,08,14,04,04,14.80
2005,08,14,04,05,14.70
2005,08,14,04,06,14.70
2005,08,14,04,07,14.70
2005,08,14,04,08,14.70
2005,08,14,04,09,14.60
2005,08,14,04,10,14.60
2005,08,14,04,11,14.60
2005,08,14,04,12,14.60
2005,08,14,04,13,14.60
2005,08,14,04,14,14.50
2005,08,14,04,15,14.50
2005,08,14,04,16,14.50
2005,08,14,04,17,14.50
2005,08,14,04,18,14.40
2005,08,14,04,19,14.40
2005,08,14,04,20,14.40
2005,08,14,04,21,14.40
2005,08,14,04,22,14.50
2005,08,14,04,23,14.50
2005,08,14,04,24,14.50
2005,08,14,04,25,14.50
2005,08,14,04,26,14.40
2005,08,14,04,27,14.40
2005,08,14,04,28,14.40
2005,08,14,04,29,14.30
2005,08,14,04,30,14.30
2005,08,14,04,31,14.30
2005,08,14,04,32,14.20
2005,08,14,04,33,14.20
2005,08,14,04,34,14.20
2005,08,14,04,35,14.20
2005,08,14,04,36,14.20
2005,08,14,04,37,14.20
2005,08,14,04,38,14.20
2005,08,14,04,39,14.20
2005,08,14,04,40,14.20
2005,08,14,04,41,14.20
2005,08,14,04,42,14.20
2005,08,14,04,43,14.20
2005,08,14,04,44,14.20
2005,08,14,04,45,14.20
2005,08,14,04,46,14.20
2005,08,14,04,47,14.30
2005,08,14,04,48,14.30
2005,08,14,04,49,14.30
2005,08,14,04,50,14.20
2005,08,14,04,51,14.20
2005,08,14,04,52,14.20
2005,08,14,04,53,14.20
2005,08,14,04,54,14.20
2005,08,14,04,55,14.30
2005,08,14,04,56,14.30
2005,08,14,04,57,14.30
2005,08,14,04,58,14.30
2005,08,14,04,59,14.40
2005,08,14,05,00,14.50
2005,08,14,05,01,14.50
2005,08,14,05,02,14.60
2005,08,14,05,03,14.60
2005,08,14,05,04,14.60
2005,08,14,05,05,14.60
2005,08,14,05,06,14.60
2005,08,14,05,07,14.60
2005,08,14,05,08,14.70
2005,08,14,05,09,14.70
2005,08,14,05,10,14.70
2005,08,14,05,11,14.60
2005,08,14,05,12,14.50
2005,08,14,05,13,14.50
2005,08,14,05,14,14.60
2005,08,14,05,15,14.60
2005,08,14,05,16,14.60
2005,08,14,05,17,14.50
2005,08,14,05,18,14.60
2005,08,14,05,19,14.60
2005,08,14,05,20,14.60
2005,08,14,05,21,14.60
2005,08,14,05,22,14.60
2005,08,14,05,23,14.60
2005,08,14,05,24,14.60
2005,08,14,05,25,14.60
2005,08,14,05,26,14.60
2005,08,14,05,27,14.60
2005,08,14,05,28,14.70
2005,08,14,05,29,14.60
2005,08,14,05,30,14.60
2005,08,14,05,31,14.60
2005,08,14,05,32,14.60
2005,08,14,05,33,14.70
2005,08,14,05,34,14.70
2005,08,14,05,35,14.80
2005,08,14,05,36,14.80
2005,08,14,05,37,14.80
2005,08,14,05,38,14.70
2005,08,14,05,39,14.70
2005,08,14,05,40,14.70
2005,08,14,05,41,14.70
2005,08,14,05,42,14.60
2005,08,14,05,43,14.50
2005,08,14,05,44,14.50
2005,08,14,05,45,14.40
2005,08,14,05,46,14.20
2005,08,14,05,47,14.20
2005,08,14,05,48,14.10
2005,08,14,05,49,14.00
2005,08,14,05,50,14.00
2005,08,14,05,51,14.00
2005,08,14,05,52,14.20
2005,08,14,05,53,14.20
2005,08,14,05,54,14.20
2005,08,14,05,55,14.20
2005,08,14,05,56,14.10
2005,08,14,05,57,14.10
2005,08,14,05,58,14.10
2005,08,14,05,59,14.10
2005,08,14,06,00,14.10
2005,08,14,06,01,14.10
2005,08,14,06,02,14.10
2005,08,14,06,03,14.00
2005,08,14,06,04,14.10
2005,08,14,06,05,14.20
2005,08,14,06,06,14.20
2005,08,14,06,07,14.30
2005,08,14,06,08,14.30
2005,08,14,06,09,14.30
2005,08,14,06,10,14.20
2005,08,14,06,11,14.30
2005,08,14,06,12,14.40
2005,08,14,06,13,14.40
2005,08,14,06,14,14.30
2005,08,14,06,15,14.20
2005,08,14,06,16,14.20
2005,08,14,06,17,14.20
2005,08,14,06,18,14.20
2005,08,14,06,19,14.20
2005,08,14,06,20,14.30
2005,08,14,06,21,14.30
2005,08,14,06,22,14.40
2005,08,14,06,23,14.40
2005,08,14,06,24,14.40
2005,08,14,06,25,14.50
2005,08,14,06,26,14.40
2005,08,14,06,27,14.40
2005,08,14,06,28,14.40
2005,08,14,06,29,14.40
2005,08,14,06,30,14.50
2005,08,14,06,31,14.50
2005,08,14,06,32,14.50
2005,08,14,06,33,14.50
2005,08,14,06,34,14.50
2005,08,14,06,35,14.50
2005,08,14,06,36,14.60
2005,08,14,06,37,14.60
2005,08,14,06,38,14.60
2005,08,14,06,39,14.60
2005,08,14,06,40,14.60
2005,08,14,06,41,14.60
2005,08,14,06,42,14.60
2005,08,14,06,43,14.60
2005,08,14,06,44,14.60
2005,08,14,06,45,14.60
2005,08,14,06,46,14.60
2005,08,14,06,47,14.60
2005,08,14,06,48,14.60
2005,08,14,06,49,14.60
2005,08,14,06,50,14.60
2005,08,14,06,51,14.60
2005,08,14,06,52,14.60
2005,08,14,06,53,14.70
2005,08,14,06,54,14.80
2005,08,14,06,55,14.80
2005,08,14,06,56,14.90
2005,08,14,06,57,14.90
2005,08,14,06,58,14.90
2005,08,14,06,59,15.00
2005,08,14,07,00,15.00
2005,08,14,07,01,15.10
2005,08,14,07,02,15.20
2005,08,14,07,03,15.30
2005,08,14,07,04,15.30
2005,08,14,07,05,15.30
2005,08,14,07,06,15.40
2005,08,14,07,07,15.40
2005,08,14,07,08,15.50
2005,08,14,07,09,15.60
2005,08,14,07,10,15.60
2005,08,14,07,11,15.60
2005,08,14,07,12,15.50
2005,08,14,07,13,15.50
2005,08,14,07,14,15.40
2005,08,14,07,15,15.40
2005,08,14,07,16,15.40
2005,08,14,07,17,15.40
2005,08,14,07,18,15.40
2005,08,14,07,19,15.40
2005,08,14,07,20,15.30
2005,08,14,07,21,15.30
2005,08,14,07,22,15.30
2005,08,14,07,23,15.30
2005,08,14,07,24,15.30
2005,08,14,07,25,15.30
2005,08,14,07,26,15.30
2005,08,14,07,27,15.30
2005,08,14,07,28,15.30
2005,08,14,07,29,15.20
2005,08,14,07,30,15.20
2005,08,14,07,31,15.10
2005,08,14,07,32,15.10
2005,08,14,07,33,15.10
2005,08,14,07,34,15.10
2005,08,14,07,35,15.10
2005,08,14,07,36,15.20
2005,08,14,07,37,15.20
2005,08,14,07,38,15.40
2005,08,14,07,39,15.40
2005,08,14,07,40,15.40
2005,08,14,07,41,15.40
2005,08,14,07,42,15.40
2005,08,14,07,43,15.50
2005,08,14,07,44,15.50
2005,08,14,07,45,15.60
2005,08,14,07,46,15.70
2005,08,14,07,47,15.70
2005,08,14,07,48,15.80
2005,08,14,07,49,15.80
2005,08,14,07,50,16.00
2005,08,14,07,51,16.20
2005,08,14,07,52,16.30
2005,08,14,07,53,16.40
2005,08,14,07,54,16.40
2005,08,14,07,55,16.30
2005,08,14,07,56,16.30
2005,08,14,07,57,16.30
2005,08,14,07,58,16.30
2005,08,14,07,59,16.30
2005,08,14,08,00,16.30
2005,08,14,08,01,16.30
2005,08,14,08,02,16.40
2005,08,14,08,03,16.50
2005,08,14,08,04,16.70
2005,08,14,08,05,16.70
2005,08,14,08,06,16.70
2005,08,14,08,07,16.80
2005,08,14,08,08,16.80
2005,08,14,08,09,16.90
2005,08,14,08,10,16.90
2005,08,14,08,11,17.10
2005,08,14,08,12,17.10
2005,08,14,08,13,17.10
2005,08,14,08,14,17.10
2005,08,14,08,15,17.20
2005,08,14,08,16,17.30
2005,08,14,08,17,17.50
2005,08,14,08,18,17.60
2005,08,14,08,19,17.50
2005,08,14,08,20,17.50
2005,08,14,08,21,17.40
2005,08,14,08,22,17.30
2005,08,14,08,23,17.20
2005,08,14,08,24,17.10
2005,08,14,08,25,17.10
2005,08,14,08,26,17.10
2005,08,14,08,27,17.10
2005,08,14,08,28,17.20
2005,08,14,08,29,17.30
2005,08,14,08,30,17.30
2005,08,14,08,31,17.40
2005,08,14,08,32,17.60
2005,08,14,08,33,17.70
2005,08,14,08,34,17.70
2005,08,14,08,35,17.70
2005,08,14,08,36,17.80
2005,08,14,08,37,17.80
2005,08,14,08,38,17.80
2005,08,14,08,39,17.70
2005,08,14,08,40,17.70
2005,08,14,08,41,17.80
2005,08,14,08,42,18.10
2005,08,14,08,43,18.30
2005,08,14,08,44,18.30
2005,08,14,08,45,18.30
2005,08,14,08,46,18.40
2005,08,14,08,47,18.50
2005,08,14,08,48,18.50
2005,08,14,08,49,18.40
2005,08,14,08,50,18.50
2005,08,14,08,51,18.60
2005,08,14,08,52,18.60
2005,08,14,08,53,18.70
2005,08,14,08,54,18.70
2005,08,14,08,55,18.90
2005,08,14,08,56,18.90
2005,08,14,08,57,18.90
2005,08,14,08,58,19.10
2005,08,14,08,59,19.30
2005,08,14,09,00,19.30
2005,08,14,09,01,19.10
2005,08,14,09,02,19.10
2005,08,14,09,03,19.20
2005,08,14,09,04,19.10
2005,08,14,09,05,19.10
2005,08,14,09,06,19.00
2005,08,14,09,07,18.90
2005,08,14,09,08,18.90
2005,08,14,09,09,18.80
2005,08,14,09,10,18.90
2005,08,14,09,11,18.90
2005,08,14,09,12,18.90
2005,08,14,09,13,18.90
2005,08,14,09,14,18.90
2005,08,14,09,15,18.90
2005,08,14,09,16,18.90
2005,08,14,09,17,18.80
2005,08,14,09,18,18.80
2005,08,14,09,19,18.80
2005,08,14,09,20,18.80
2005,08,14,09,21,18.80
2005,08,14,09,22,18.90
2005,08,14,09,23,18.90
2005,08,14,09,24,19.00
2005,08,14,09,25,19.10
2005,08,14,09,26,19.10
2005,08,14,09,27,19.20
2005,08,14,09,28,19.30
2005,08,14,09,29,19.30
2005,08,14,09,30,19.20
2005,08,14,09,31,19.20
2005,08,14,09,32,19.20
2005,08,14,09,33,19.20
2005,08,14,09,34,19.30
2005,08,14,09,35,19.50
2005,08,14,09,36,19.40
2005,08,14,09,37,19.40
2005,08,14,09,38,19.50
2005,08,14,09,39,19.60
2005,08,14,09,40,19.60
2005,08,14,09,41,19.70
2005,08,14,09,42,19.80
2005,08,14,09,43,19.90
2005,08,14,09,44,20.00
2005,08,14,09,45,20.10
2005,08,14,09,46,20.00
2005,08,14,09,47,19.90
2005,08,14,09,48,19.90
2005,08,14,09,49,19.90
2005,08,14,09,50,20.00
2005,08,14,09,51,20.10
2005,08,14,09,52,20.00
2005,08,14,09,53,20.10
2005,08,14,09,54,20.20
2005,08,14,09,55,20.40
2005,08,14,09,56,20.50
2005,08,14,09,57,20.50
2005,08,14,09,58,20.40
2005,08,14,09,59,20.50
2005,08,14,10,00,20.50
2005,08,14,10,01,20.60
2005,08,14,10,02,20.50
2005,08,14,10,03,20.50
2005,08,14,10,04,20.50
2005,08,14,10,05,20.70
2005,08,14,10,06,20.80
2005,08,14,10,07,20.90
2005,08,14,10,08,20.80
2005,08,14,10,09,20.70
2005,08,14,10,10,20.60
2005,08,14,10,11,20.60
2005,08,14,10,12,20.60
2005,08,14,10,13,20.70
2005,08,14,10,14,20.80
2005,08,14,10,15,20.90
2005,08,14,10,16,21.00
2005,08,14,10,17,21.10
2005,08,14,10,18,21.20
2005,08,14,10,19,21.30
2005,08,14,10,20,21.40
2005,08,14,10,21,21.30
2005,08,14,10,22,21.30
2005,08,14,10,23,21.30
2005,08,14,10,24,21.50
2005,08,14,10,25,21.70
2005,08,14,10,26,21.70
2005,08,14,10,27,21.50
2005,08,14,10,28,21.40
2005,08,14,10,29,21.30
2005,08,14,10,30,21.30
2005,08,14,10,31,21.30
2005,08,14,10,32,21.30
2005,08,14,10,33,21.20
2005,08,14,10,34,21.20
2005,08,14,10,35,21.20
2005,08,14,10,36,21.30
2005,08,14,10,37,21.20
2005,08,14,10,38,21.00
2005,08,14,10,39,21.10
2005,08,14,10,40,21.20
2005,08,14,10,41,21.20
2005,08,14,10,42,21.30
2005,08,14,10,43,21.30
2005,08,14,10,44,21.30
2005,08,14,10,45,21.40
2005,08,14,10,46,21.50
2005,08,14,10,47,21.50
2005,08,14,10,48,21.70
2005,08,14,10,49,21.60
2005,08,14,10,50,21.60
2005,08,14,10,51,21.60
2005,08,14,10,52,21.70
2005,08,14,10,53,21.70
2005,08,14,10,54,21.70
2005,08,14,10,55,21.70
2005,08,14,10,56,21.70
2005,08,14,10,57,21.70
2005,08,14,10,58,21.90
2005,08,14,10,59,22.10
2005,08,14,11,00,22.20
2005,08,14,11,01,22.40
2005,08,14,11,02,22.40
2005,08,14,11,03,22.30
2005,08,14,11,04,22.20
2005,08,14,11,05,22.20
2005,08,14,11,06,22.30
2005,08,14,11,07,22.40
2005,08,14,11,08,22.40
2005,08,14,11,09,22.50
2005,08,14,11,10,22.50
2005,08,14,11,11,22.70
2005,08,14,11,12,22.60
2005,08,14,11,13,22.50
2005,08,14,11,14,22.30
2005,08,14,11,15,22.30
2005,08,14,11,16,22.20
2005,08,14,11,17,22.10
2005,08,14,11,18,22.10
2005,08,14,11,19,22.00
2005,08,14,11,20,22.10
2005,08,14,11,21,22.30
2005,08,14,11,22,22.40
2005,08,14,11,23,22.60
2005,08,14,11,24,22.80
2005,08,14,11,25,22.80
2005,08,14,11,26,22.70
2005,08,14,11,27,22.80
2005,08,14,11,28,22.90
2005,08,14,11,29,22.90
2005,08,14,11,30,23.00
2005,08,14,11,31,23.10
2005,08,14,11,32,23.20
2005,08,14,11,33,23.20
2005,08,14,11,34,23.20
2005,08,14,11,35,23.20
2005,08,14,11,36,23.20
2005,08,14,11,37,23.20
2005,08,14,11,38,23.30
2005,08,14,11,39,23.30
2005,08,14,11,40,23.40
2005,08,14,11,41,23.40
2005,08,14,11,42,23.50
2005,08,14,11,43,23.50
2005,08,14,11,44,23.60
2005,08,14,11,45,23.70
2005,08,14,11,46,23.80
2005,08,14,11,47,24.00
2005,08,14,11,48,24.00
2005,08,14,11,49,24.00
2005,08,14,11,50,24.00
2005,08,14,11,51,24.10
2005,08,14,11,52,24.10
2005,08,14,11,53,24.20
2005,08,14,11,54,24.20
2005,08,14,11,55,24.30
2005,08,14,11,56,24.50
2005,08,14,11,57,24.50
2005,08,14,11,58,24.50
2005,08,14,11,59,24.40
2005,08,14,12,00,24.40
2005,08,14,12,01,24.50
2005,08,14,12,02,24.60
2005,08,14,12,03,24.70
2005,08,14,12,04,24.40
2005,08,14,12,05,24.20
2005,08,14,12,06,24.10
2005,08,14,12,07,24.10
2005,08,14,12,08,24.10
2005,08,14,12,09,24.10
2005,08,14,12,10,24.10
2005,08,14,12,11,24.20
2005,08,14,12,12,24.30
2005,08,14,12,13,24.20
2005,08,14,12,14,24.10
2005,08,14,12,15,23.80
2005,08,14,12,16,23.70
2005,08,14,12,17,23.70
2005,08,14,12,18,23.70
2005,08,14,12,19,23.70
2005,08,14,12,20,23.70
2005,08,14,12,21,23.70
2005,08,14,12,22,23.70
2005,08,14,12,23,23.70
2005,08,14,12,24,23.60
2005,08,14,12,25,23.70
2005,08,14,12,26,23.90
2005,08,14,12,27,24.10
2005,08,14,12,28,24.30
2005,08,14,12,29,24.50
2005,08,14,12,30,24.60
2005,08,14,12,31,24.60
2005,08,14,12,32,24.70
2005,08,14,12,33,24.60
2005,08,14,12,34,24.60
2005,08,14,12,35,24.50
2005,08,14,12,36,24.60
2005,08,14,12,37,24.70
2005,08,14,12,38,24.80
2005,08,14,12,39,24.80
2005,08,14,12,40,24.70
2005,08,14,12,41,24.60
2005,08,14,12,42,24.70
2005,08,14,12,43,24.80
2005,08,14,12,44,25.00
2005,08,14,12,45,25.00
2005,08,14,12,46,25.10
2005,08,14,12,47,25.30
2005,08,14,12,48,25.40
2005,08,14,12,49,25.40
2005,08,14,12,50,25.30
2005,08,14,12,51,25.20
2005,08,14,12,52,25.30
2005,08,14,12,53,25.40
2005,08,14,12,54,25.40
2005,08,14,12,55,25.40
2005,08,14,12,56,25.30
2005,08,14,12,57,25.10
2005,08,14,12,58,25.10
2005,08,14,12,59,25.20
2005,08,14,13,00,25.30
2005,08,14,13,01,25.40
2005,08,14,13,02,25.50
2005,08,14,13,03,25.50
2005,08,14,13,04,25.50
2005,08,14,13,05,25.60
2005,08,14,13,06,25.80
2005,08,14,13,07,26.00
2005,08,14,13,08,26.00
2005,08,14,13,09,25.90
2005,08,14,13,10,25.90
2005,08,14,13,11,25.80
2005,08,14,13,12,25.70
2005,08,14,13,13,25.80
2005,08,14,13,14,25.90
2005,08,14,13,15,25.70
2005,08,14,13,16,25.50
2005,08,14,13,17,25.20
2005,08,14,13,18,25.00
2005,08,14,13,19,25.00
2005,08,14,13,20,25.00
2005,08,14,13,21,25.00
2005,08,14,13,22,25.10
2005,08,14,13,23,25.10
2005,08,14,13,24,25.10
2005,08,14,13,25,25.20
2005,08,14,13,26,25.20
2005,08,14,13,27,25.30
2005,08,14,13,28,25.40
2005,08,14,13,29,25.30
2005,08,14,13,30,25.30
2005,08,14,13,31,25.20
2005,08,14,13,32,25.20
2005,08,14,13,33,25.20
2005,08,14,13,34,25.20
2005,08,14,13,35,25.20
2005,08,14,13,36,25.20
2005,08,14,13,37,25.20
2005,08,14,13,38,25.30
2005,08,14,13,39,25.40
2005,08,14,13,40,25.40
2005,08,14,13,41,25.40
2005,08,14,13,42,25.50
2005,08,14,13,43,25.40
2005,08,14,13,44,25.30
2005,08,14,13,45,25.40
2005,08,14,13,46,25.70
2005,08,14,13,47,25.70
2005,08,14,13,48,25.70
2005,08,14,13,49,25.70
2005,08,14,13,50,25.80
2005,08,14,13,51,25.60
2005,08,14,13,52,25.50
2005,08,14,13,53,25.40
2005,08,14,13,54,25.40
2005,08,14,13,55,25.50
2005,08,14,13,56,25.60
2005,08,14,13,57,25.70
2005,08,14,13,58,25.40
2005,08,14,13,59,25.20
2005,08,14,14,00,25.00
2005,08,14,14,01,24.90
2005,08,14,14,02,24.70
2005,08,14,14,03,24.50
2005,08,14,14,04,24.40
2005,08,14,14,05,24.20
2005,08,14,14,06,24.10
2005,08,14,14,07,24.10
2005,08,14,14,08,24.10
2005,08,14,14,09,24.10
2005,08,14,14,10,24.10
2005,08,14,14,11,24.30
2005,08,14,14,12,24.30
2005,08,14,14,13,24.30
2005,08,14,14,14,24.40
2005,08,14,14,15,24.40
2005,08,14,14,16,24.50
2005,08,14,14,17,24.60
2005,08,14,14,18,24.70
2005,08,14,14,19,24.80
2005,08,14,14,20,24.90
2005,08,14,14,21,24.90
2005,08,14,14,22,25.10
2005,08,14,14,23,25.30
2005,08,14,14,24,25.30
2005,08,14,14,25,25.30
2005,08,14,14,26,25.20
2005,08,14,14,27,25.10
2005,08,14,14,28,25.10
2005,08,14,14,29,25.20
2005,08,14,14,30,25.40
2005,08,14,14,31,25.50
2005,08,14,14,32,25.70
2005,08,14,14,33,26.00
2005,08,14,14,34,26.30
2005,08,14,14,35,26.80
2005,08,14,14,36,27.10
2005,08,14,14,37,27.40
2005,08,14,14,38,27.60
2005,08,14,14,39,27.90
2005,08,14,14,40,28.20
2005,08,14,14,41,28.50
2005,08,14,14,42,28.80
2005,08,14,14,43,28.90
2005,08,14,14,44,28.90
2005,08,14,14,45,28.90
2005,08,14,14,46,28.90
2005,08,14,14,47,28.90
2005,08,14,14,48,28.90
2005,08,14,14,49,28.90
2005,08,14,14,50,28.90
2005,08,14,14,51,28.90
2005,08,14,14,52,28.90
2005,08,14,14,53,28.80
2005,08,14,14,54,28.80
2005,08,14,14,55,28.60
2005,08,14,14,56,28.80
2005,08,14,14,57,28.80
2005,08,14,14,58,28.90
2005,08,14,14,59,28.80
2005,08,14,15,00,28.90
2005,08,14,15,01,28.80
2005,08,14,15,02,28.90
2005,08,14,15,03,29.10
2005,08,14,15,04,29.00
2005,08,14,15,05,28.80
2005,08,14,15,06,28.90
2005,08,14,15,07,28.90
2005,08,14,15,08,28.90
2005,08,14,15,09,28.70
2005,08,14,15,10,28.70
2005,08,14,15,11,28.60
2005,08,14,15,12,28.50
2005,08,14,15,13,28.30
2005,08,14,15,14,28.30
2005,08,14,15,15,28.30
2005,08,14,15,16,28.20
2005,08,14,15,17,28.10
2005,08,14,15,18,28.10
2005,08,14,15,19,28.10
2005,08,14,15,20,28.20
2005,08,14,15,21,28.20
2005,08,14,15,22,28.40
2005,08,14,15,23,28.60
2005,08,14,15,24,28.80
2005,08,14,15,25,28.90
2005,08,14,15,26,28.90
2005,08,14,15,27,28.90
2005,08,14,15,28,29.00
2005,08,14,15,29,29.20
2005,08,14,15,30,29.30
2005,08,14,15,31,29.40
2005,08,14,15,32,29.30
2005,08,14,15,33,29.10
2005,08,14,15,34,29.10
2005,08,14,15,35,28.90
2005,08,14,15,36,28.90
2005,08,14,15,37,28.80
2005,08,14,15,38,28.90
2005,08,14,15,39,29.00
2005,08,14,15,40,29.10
2005,08,14,15,41,29.00
2005,08,14,15,42,29.00
2005,08,14,15,43,29.30
2005,08,14,15,44,29.20
2005,08,14,15,45,29.30
2005,08,14,15,46,29.30
2005,08,14,15,47,29.10
2005,08,14,15,48,29.20
2005,08,14,15,49,29.30
2005,08,14,15,50,29.30
2005,08,14,15,51,29.20
2005,08,14,15,52,29.10
2005,08,14,15,53,29.00
2005,08,14,15,54,29.00
2005,08,14,15,55,29.10
2005,08,14,15,56,29.10
2005,08,14,15,57,29.00
2005,08,14,15,58,29.10
2005,08,14,15,59,29.00
2005,08,14,16,00,29.00
2005,08,14,16,01,29.00
2005,08,14,16,02,28.80
2005,08,14,16,03,28.70
2005,08,14,16,04,28.60
2005,08,14,16,05,28.70
2005,08,14,16,06,28.70
2005,08,14,16,07,28.70
2005,08,14,16,08,28.60
2005,08,14,16,09,28.60
2005,08,14,16,10,28.50
2005,08,14,16,11,28.50
2005,08,14,16,12,28.60
2005,08,14,16,13,28.70
2005,08,14,16,14,28.90
2005,08,14,16,15,28.90
2005,08,14,16,16,28.80
2005,08,14,16,17,28.70
2005,08,14,16,18,28.70
2005,08,14,16,19,28.60
2005,08,14,16,20,28.60
2005,08,14,16,21,28.50
2005,08,14,16,22,28.60
2005,08,14,16,23,28.70
2005,08,14,16,24,28.70
2005,08,14,16,25,28.80
2005,08,14,16,26,28.90
2005,08,14,16,27,29.10
2005,08,14,16,28,29.30
2005,08,14,16,29,29.20
2005,08,14,16,30,29.30
2005,08,14,16,31,29.50
2005,08,14,16,32,29.50
2005,08,14,16,33,29.30
2005,08,14,16,34,29.30
2005,08,14,16,35,29.10
2005,08,14,16,36,29.10
2005,08,14,16,37,29.10
2005,08,14,16,38,28.90
2005,08,14,16,39,28.80
2005,08,14,16,40,28.60
2005,08,14,16,41,28.50
2005,08,14,16,42,28.70
2005,08,14,16,43,28.70
2005,08,14,16,44,29.00
2005,08,14,16,45,29.30
2005,08,14,16,46,29.50
2005,08,14,16,47,29.70
2005,08,14,16,48,29.70
2005,08,14,16,49,29.90
2005,08,14,16,50,29.90
2005,08,14,16,51,29.90
2005,08,14,16,52,29.90
2005,08,14,16,53,29.90
2005,08,14,16,54,29.80
2005,08,14,16,55,29.70
2005,08,14,16,56,29.70
2005,08,14,16,57,29.70
2005,08,14,16,58,29.70
2005,08,14,16,59,29.60
2005,08,14,17,00,29.60
2005,08,14,17,01,29.40
2005,08,14,17,02,29.40
2005,08,14,17,03,29.40
2005,08,14,17,04,29.30
2005,08,14,17,05,29.30
2005,08,14,17,06,29.20
2005,08,14,17,07,29.00
2005,08,14,17,08,29.00
2005,08,14,17,09,29.00
2005,08,14,17,10,28.90
2005,08,14,17,11,28.90
2005,08,14,17,12,28.90
2005,08,14,17,13,28.90
2005,08,14,17,14,28.90
2005,08,14,17,15,28.90
2005,08,14,17,16,28.90
2005,08,14,17,17,28.80
2005,08,14,17,18,28.80
2005,08,14,17,19,28.80
2005,08,14,17,20,28.70
2005,08,14,17,21,28.70
2005,08,14,17,22,28.80
2005,08,14,17,23,28.90
2005,08,14,17,24,28.90
2005,08,14,17,25,28.90
2005,08,14,17,26,28.90
2005,08,14,17,27,28.90
2005,08,14,17,28,28.90
2005,08,14,17,29,28.90
2005,08,14,17,30,28.60
2005,08,14,17,31,28.50
2005,08,14,17,32,28.40
2005,08,14,17,33,28.20
2005,08,14,17,34,28.10
2005,08,14,17,35,28.20
2005,08,14,17,36,28.20
2005,08,14,17,37,28.20
2005,08,14,17,38,28.20
2005,08,14,17,39,28.10
2005,08,14,17,40,28.10
2005,08,14,17,41,28.30
2005,08,14,17,42,28.40
2005,08,14,17,43,28.40
2005,08,14,17,44,28.40
2005,08,14,17,45,28.30
2005,08,14,17,46,28.20
2005,08,14,17,47,28.30
2005,08,14,17,48,28.30
2005,08,14,17,49,28.30
2005,08,14,17,50,28.50
2005,08,14,17,51,28.40
2005,08,14,17,52,28.40
2005,08,14,17,53,28.50
2005,08,14,17,54,28.60
2005,08,14,17,55,28.50
2005,08,14,17,56,28.60
2005,08,14,17,57,28.50
2005,08,14,17,58,28.70
2005,08,14,17,59,28.80
2005,08,14,18,00,28.80
2005,08,14,18,01,28.80